Year,Month,Day,Hour,Minute,Value (Times are PST for insolation in W/m^2)
2014,03,21,00,00,0.00
2014,03,21,00,01,0.00
2014,03,21,00,02,0.00
2014,03,21,00,03,0.00
2014,03,21,00,04,0.00
2014,03,21,00,05,0.00
2014,03,21,00,06,0.00
2014,03,21,00,07,0.00
2014,03,21,00,08,0.00
2014,03,21,00,09,0.00
2014,03,21,00,10,0.00
2014,03,21,00,11,0.00
2014,03,21,00,12,0.00
2014,03,21,00,13,0.00
2014,03,21,00,14,0.00
2014,03,21,00,15,0.00
2014,03,21,00,16,0.00
2014,03,21,00,17,0.00
2014,03,21,00,18,0.00
2014,03,21,00,19,0.00
2014,03,21,00,20,0.00
2014,03,21,00,21,0.00
2014,03,21,00,22,0.00
2014,03,21,00,23,0.00
2014,03,21,00,24,0.00
2014,03,21,00,25,0.00
2014,03,21,00,26,0.00
2014,03,21,00,27,0.00
2014,03,21,00,28,0.00
2014,03,21,00,29,0.00
2014,03,21,00,30,0.00
2014,03,21,00,31,0.00
2014,03,21,00,32,0.00
2014,03,21,00,33,0.00
2014,03,21,00,34,0.00
2014,03,21,00,35,0.00
2014,03,21,00,36,0.00
2014,03,21,00,37,0.00
2014,03,21,00,38,0.00
2014,03,21,00,39,0.00
2014,03,21,00,40,0.00
2014,03,21,00,41,0.00
2014,03,21,00,42,0.00
2014,03,21,00,43,0.00
2014,03,21,00,44,0.00
2014,03,21,00,45,0.00
2014,03,21,00,46,0.00
2014,03,21,00,47,0.00
2014,03,21,00,48,0.00
2014,03,21,00,49,0.00
2014,03,21,00,50,0.00
2014,03,21,00,51,0.00
2014,03,21,00,52,0.00
2014,03,21,00,53,0.00
2014,03,21,00,54,0.00
2014,03,21,00,55,0.00
2014,03,21,00,56,0.00
2014,03,21,00,57,0.00
2014,03,21,00,58,0.00
2014,03,21,00,59,0.00
2014,03,21,01,00,0.00
2014,03,21,01,01,0.00
2014,03,21,01,02,0.00
2014,03,21,01,03,0.00
2014,03,21,01,04,0.00
2014,03,21,01,05,0.00
2014,03,21,01,06,0.00
2014,03,21,01,07,0.00
2014,03,21,01,08,0.00
2014,03,21,01,09,0.00
2014,03,21,01,10,0.00
2014,03,21,01,11,0.00
2014,03,21,01,12,0.00
2014,03,21,01,13,0.00
2014,03,21,01,14,0.00
2014,03,21,01,15,0.00
2014,03,21,01,16,0.00
2014,03,21,01,17,0.00
2014,03,21,01,18,0.00
2014,03,21,01,19,0.00
2014,03,21,01,20,0.00
2014,03,21,01,21,0.00
2014,03,21,01,22,0.00
2014,03,21,01,23,0.00
2014,03,21,01,24,0.00
2014,03,21,01,25,0.00
2014,03,21,01,26,0.00
2014,03,21,01,27,0.00
2014,03,21,01,28,0.00
2014,03,21,01,29,0.00
2014,03,21,01,30,0.00
2014,03,21,01,31,0.00
2014,03,21,01,32,0.00
2014,03,21,01,33,0.00
2014,03,21,01,34,0.00
2014,03,21,01,35,0.00
2014,03,21,01,36,0.00
2014,03,21,01,37,0.00
2014,03,21,01,38,0.00
2014,03,21,01,39,0.00
2014,03,21,01,40,0.00
2014,03,21,01,41,0.00
2014,03,21,01,42,0.00
2014,03,21,01,43,0.00
2014,03,21,01,44,0.00
2014,03,21,01,45,0.00
2014,03,21,01,46,0.00
2014,03,21,01,47,0.00
2014,03,21,01,48,0.00
2014,03,21,01,49,0.00
2014,03,21,01,50,0.00
2014,03,21,01,51,0.00
2014,03,21,01,52,0.00
2014,03,21,01,53,0.00
2014,03,21,01,54,0.00
2014,03,21,01,55,0.00
2014,03,21,01,56,0.00
2014,03,21,01,57,0.00
2014,03,21,01,58,0.00
2014,03,21,01,59,0.00
2014,03,21,02,00,0.00
2014,03,21,02,01,0.00
2014,03,21,02,02,0.00
2014,03,21,02,03,0.00
2014,03,21,02,04,0.00
2014,03,21,02,05,0.00
2014,03,21,02,06,0.00
2014,03,21,02,07,0.00
2014,03,21,02,08,0.00
2014,03,21,02,09,0.00
2014,03,21,02,10,0.00
2014,03,21,02,11,0.00
2014,03,21,02,12,0.00
2014,03,21,02,13,0.00
2014,03,21,02,14,0.00
2014,03,21,02,15,0.00
2014,03,21,02,16,0.00
2014,03,21,02,17,0.00
2014,03,21,02,18,0.00
2014,03,21,02,19,0.00
2014,03,21,02,20,0.00
2014,03,21,02,21,0.00
2014,03,21,02,22,0.00
2014,03,21,02,23,0.00
2014,03,21,02,24,0.00
2014,03,21,02,25,0.00
2014,03,21,02,26,0.00
2014,03,21,02,27,0.00
2014,03,21,02,28,0.00
2014,03,21,02,29,0.00
2014,03,21,02,30,0.00
2014,03,21,02,31,0.00
2014,03,21,02,32,0.00
2014,03,21,02,33,0.00
2014,03,21,02,34,0.00
2014,03,21,02,35,0.00
2014,03,21,02,36,0.00
2014,03,21,02,37,0.00
2014,03,21,02,38,0.00
2014,03,21,02,39,0.00
2014,03,21,02,40,0.00
2014,03,21,02,41,0.00
2014,03,21,02,42,0.00
2014,03,21,02,43,0.00
2014,03,21,02,44,0.00
2014,03,21,02,45,0.00
2014,03,21,02,46,0.00
2014,03,21,02,47,0.00
2014,03,21,02,48,0.00
2014,03,21,02,49,0.00
2014,03,21,02,50,0.00
2014,03,21,02,51,0.00
2014,03,21,02,52,0.00
2014,03,21,02,53,0.00
2014,03,21,02,54,0.00
2014,03,21,02,55,0.00
2014,03,21,02,56,0.00
2014,03,21,02,57,0.00
2014,03,21,02,58,0.00
2014,03,21,02,59,0.00
2014,03,21,03,00,0.00
2014,03,21,03,01,0.00
2014,03,21,03,02,0.00
2014,03,21,03,03,0.00
2014,03,21,03,04,0.00
2014,03,21,03,05,0.00
2014,03,21,03,06,0.00
2014,03,21,03,07,0.00
2014,03,21,03,08,0.00
2014,03,21,03,09,0.00
2014,03,21,03,10,0.00
2014,03,21,03,11,0.00
2014,03,21,03,12,0.00
2014,03,21,03,13,0.00
2014,03,21,03,14,0.00
2014,03,21,03,15,0.00
2014,03,21,03,16,0.00
2014,03,21,03,17,0.00
2014,03,21,03,18,0.00
2014,03,21,03,19,0.00
2014,03,21,03,20,0.00
2014,03,21,03,21,0.00
2014,03,21,03,22,0.00
2014,03,21,03,23,0.00
2014,03,21,03,24,0.00
2014,03,21,03,25,0.00
2014,03,21,03,26,0.00
2014,03,21,03,27,0.00
2014,03,21,03,28,0.00
2014,03,21,03,29,0.00
2014,03,21,03,30,0.00
2014,03,21,03,31,0.00
2014,03,21,03,32,0.00
2014,03,21,03,33,0.00
2014,03,21,03,34,0.00
2014,03,21,03,35,0.00
2014,03,21,03,36,0.00
2014,03,21,03,37,0.00
2014,03,21,03,38,0.00
2014,03,21,03,39,0.00
2014,03,21,03,40,0.00
2014,03,21,03,41,0.00
2014,03,21,03,42,0.00
2014,03,21,03,43,0.00
2014,03,21,03,44,0.00
2014,03,21,03,45,0.00
2014,03,21,03,46,0.00
2014,03,21,03,47,0.00
2014,03,21,03,48,0.00
2014,03,21,03,49,0.00
2014,03,21,03,50,0.00
2014,03,21,03,51,0.00
2014,03,21,03,52,0.00
2014,03,21,03,53,0.00
2014,03,21,03,54,0.00
2014,03,21,03,55,0.00
2014,03,21,03,56,0.00
2014,03,21,03,57,0.00
2014,03,21,03,58,0.00
2014,03,21,03,59,0.00
2014,03,21,04,00,0.00
2014,03,21,04,01,0.00
2014,03,21,04,02,0.00
2014,03,21,04,03,0.00
2014,03,21,04,04,0.00
2014,03,21,04,05,0.00
2014,03,21,04,06,0.00
2014,03,21,04,07,0.00
2014,03,21,04,08,0.00
2014,03,21,04,09,0.00
2014,03,21,04,10,0.00
2014,03,21,04,11,0.00
2014,03,21,04,12,0.00
2014,03,21,04,13,0.00
2014,03,21,04,14,0.00
2014,03,21,04,15,0.00
2014,03,21,04,16,0.00
2014,03,21,04,17,0.00
2014,03,21,04,18,0.00
2014,03,21,04,19,0.00
2014,03,21,04,20,0.00
2014,03,21,04,21,0.00
2014,03,21,04,22,0.00
2014,03,21,04,23,0.00
2014,03,21,04,24,0.00
2014,03,21,04,25,0.00
2014,03,21,04,26,0.00
2014,03,21,04,27,0.00
2014,03,21,04,28,0.00
2014,03,21,04,29,0.00
2014,03,21,04,30,0.00
2014,03,21,04,31,0.00
2014,03,21,04,32,0.00
2014,03,21,04,33,0.00
2014,03,21,04,34,0.00
2014,03,21,04,35,0.00
2014,03,21,04,36,0.00
2014,03,21,04,37,0.00
2014,03,21,04,38,0.00
2014,03,21,04,39,0.00
2014,03,21,04,40,0.00
2014,03,21,04,41,0.00
2014,03,21,04,42,0.00
2014,03,21,04,43,0.00
2014,03,21,04,44,0.00
2014,03,21,04,45,0.00
2014,03,21,04,46,0.00
2014,03,21,04,47,0.00
2014,03,21,04,48,0.00
2014,03,21,04,49,0.00
2014,03,21,04,50,0.00
2014,03,21,04,51,0.00
2014,03,21,04,52,0.00
2014,03,21,04,53,0.00
2014,03,21,04,54,0.00
2014,03,21,04,55,0.00
2014,03,21,04,56,0.00
2014,03,21,04,57,0.00
2014,03,21,04,58,0.00
2014,03,21,04,59,0.00
2014,03,21,05,00,0.00
2014,03,21,05,01,0.00
2014,03,21,05,02,0.00
2014,03,21,05,03,0.00
2014,03,21,05,04,0.00
2014,03,21,05,05,0.00
2014,03,21,05,06,0.00
2014,03,21,05,07,0.00
2014,03,21,05,08,0.00
2014,03,21,05,09,0.00
2014,03,21,05,10,0.00
2014,03,21,05,11,0.00
2014,03,21,05,12,0.00
2014,03,21,05,13,0.00
2014,03,21,05,14,0.00
2014,03,21,05,15,0.00
2014,03,21,05,16,0.00
2014,03,21,05,17,0.00
2014,03,21,05,18,0.00
2014,03,21,05,19,0.00
2014,03,21,05,20,0.00
2014,03,21,05,21,0.00
2014,03,21,05,22,0.00
2014,03,21,05,23,0.00
2014,03,21,05,24,0.00
2014,03,21,05,25,0.00
2014,03,21,05,26,0.00
2014,03,21,05,27,0.00
2014,03,21,05,28,0.00
2014,03,21,05,29,0.00
2014,03,21,05,30,0.00
2014,03,21,05,31,0.00
2014,03,21,05,32,0.00
2014,03,21,05,33,0.00
2014,03,21,05,34,0.00
2014,03,21,05,35,0.00
2014,03,21,05,36,0.00
2014,03,21,05,37,0.00
2014,03,21,05,38,0.00
2014,03,21,05,39,0.00
2014,03,21,05,40,0.00
2014,03,21,05,41,0.00
2014,03,21,05,42,0.00
2014,03,21,05,43,0.00
2014,03,21,05,44,0.00
2014,03,21,05,45,0.00
2014,03,21,05,46,0.00
2014,03,21,05,47,0.00
2014,03,21,05,48,0.00
2014,03,21,05,49,0.00
2014,03,21,05,50,0.00
2014,03,21,05,51,0.00
2014,03,21,05,52,0.00
2014,03,21,05,53,0.00
2014,03,21,05,54,0.00
2014,03,21,05,55,0.00
2014,03,21,05,56,0.00
2014,03,21,05,57,0.00
2014,03,21,05,58,0.00
2014,03,21,05,59,0.00
2014,03,21,06,00,0.00
2014,03,21,06,01,0.00
2014,03,21,06,02,0.00
2014,03,21,06,03,0.00
2014,03,21,06,04,0.00
2014,03,21,06,05,0.00
2014,03,21,06,06,0.00
2014,03,21,06,07,0.00
2014,03,21,06,08,0.00
2014,03,21,06,09,0.00
2014,03,21,06,10,0.00
2014,03,21,06,11,0.00
2014,03,21,06,12,0.00
2014,03,21,06,13,0.00
2014,03,21,06,14,0.00
2014,03,21,06,15,0.00
2014,03,21,06,16,0.00
2014,03,21,06,17,0.00
2014,03,21,06,18,0.00
2014,03,21,06,19,0.00
2014,03,21,06,20,0.00
2014,03,21,06,21,0.00
2014,03,21,06,22,0.00
2014,03,21,06,23,0.00
2014,03,21,06,24,0.00
2014,03,21,06,25,0.00
2014,03,21,06,26,0.00
2014,03,21,06,27,0.00
2014,03,21,06,28,0.00
2014,03,21,06,29,0.00
2014,03,21,06,30,0.00
2014,03,21,06,31,0.00
2014,03,21,06,32,0.00
2014,03,21,06,33,0.00
2014,03,21,06,34,0.00
2014,03,21,06,35,0.00
2014,03,21,06,36,0.00
2014,03,21,06,37,0.00
2014,03,21,06,38,0.00
2014,03,21,06,39,0.00
2014,03,21,06,40,0.00
2014,03,21,06,41,0.00
2014,03,21,06,42,0.00
2014,03,21,06,43,0.00
2014,03,21,06,44,0.00
2014,03,21,06,45,0.00
2014,03,21,06,46,0.00
2014,03,21,06,47,0.00
2014,03,21,06,48,0.00
2014,03,21,06,49,0.00
2014,03,21,06,50,0.00
2014,03,21,06,51,0.00
2014,03,21,06,52,0.00
2014,03,21,06,53,0.00
2014,03,21,06,54,0.00
2014,03,21,06,55,0.00
2014,03,21,06,56,0.00
2014,03,21,06,57,0.00
2014,03,21,06,58,0.00
2014,03,21,06,59,0.00
2014,03,21,07,00,0.00
2014,03,21,07,01,0.00
2014,03,21,07,02,0.00
2014,03,21,07,03,0.00
2014,03,21,07,04,0.00
2014,03,21,07,05,0.00
2014,03,21,07,06,0.00
2014,03,21,07,07,0.00
2014,03,21,07,08,0.00
2014,03,21,07,09,0.00
2014,03,21,07,10,0.00
2014,03,21,07,11,0.00
2014,03,21,07,12,0.00
2014,03,21,07,13,0.00
2014,03,21,07,14,0.00
2014,03,21,07,15,0.00
2014,03,21,07,16,2.00
2014,03,21,07,17,5.00
2014,03,21,07,18,5.00
2014,03,21,07,19,5.00
2014,03,21,07,20,5.00
2014,03,21,07,21,6.70
2014,03,21,07,22,7.00
2014,03,21,07,23,7.00
2014,03,21,07,24,7.60
2014,03,21,07,25,9.00
2014,03,21,07,26,10.00
2014,03,21,07,27,11.00
2014,03,21,07,28,11.80
2014,03,21,07,29,12.00
2014,03,21,07,30,13.80
2014,03,21,07,31,14.30
2014,03,21,07,32,16.40
2014,03,21,07,33,18.00
2014,03,21,07,34,18.00
2014,03,21,07,35,18.50
2014,03,21,07,36,19.00
2014,03,21,07,37,20.60
2014,03,21,07,38,22.80
2014,03,21,07,39,25.00
2014,03,21,07,40,26.00
2014,03,21,07,41,26.50
2014,03,21,07,42,28.00
2014,03,21,07,43,28.00
2014,03,21,07,44,30.70
2014,03,21,07,45,34.40
2014,03,21,07,46,36.70
2014,03,21,07,47,38.80
2014,03,21,07,48,42.20
2014,03,21,07,49,44.60
2014,03,21,07,50,47.60
2014,03,21,07,51,49.80
2014,03,21,07,52,52.50
2014,03,21,07,53,59.20
2014,03,21,07,54,64.20
2014,03,21,07,55,69.00
2014,03,21,07,56,69.30
2014,03,21,07,57,74.30
2014,03,21,07,58,73.60
2014,03,21,07,59,65.60
2014,03,21,08,00,62.50
2014,03,21,08,01,62.00
2014,03,21,08,02,62.70
2014,03,21,08,03,63.00
2014,03,21,08,04,62.10
2014,03,21,08,05,63.00
2014,03,21,08,06,63.40
2014,03,21,08,07,69.40
2014,03,21,08,08,79.00
2014,03,21,08,09,82.50
2014,03,21,08,10,89.20
2014,03,21,08,11,93.90
2014,03,21,08,12,100.60
2014,03,21,08,13,106.70
2014,03,21,08,14,113.50
2014,03,21,08,15,118.60
2014,03,21,08,16,123.30
2014,03,21,08,17,130.80
2014,03,21,08,18,135.60
2014,03,21,08,19,140.40
2014,03,21,08,20,143.50
2014,03,21,08,21,145.80
2014,03,21,08,22,149.30
2014,03,21,08,23,155.10
2014,03,21,08,24,156.00
2014,03,21,08,25,157.60
2014,03,21,08,26,162.40
2014,03,21,08,27,167.40
2014,03,21,08,28,171.10
2014,03,21,08,29,171.20
2014,03,21,08,30,171.00
2014,03,21,08,31,169.20
2014,03,21,08,32,171.60
2014,03,21,08,33,174.00
2014,03,21,08,34,172.70
2014,03,21,08,35,171.00
2014,03,21,08,36,171.00
2014,03,21,08,37,173.10
2014,03,21,08,38,174.00
2014,03,21,08,39,172.10
2014,03,21,08,40,172.00
2014,03,21,08,41,172.50
2014,03,21,08,42,174.00
2014,03,21,08,43,174.00
2014,03,21,08,44,175.10
2014,03,21,08,45,176.00
2014,03,21,08,46,177.50
2014,03,21,08,47,178.90
2014,03,21,08,48,185.00
2014,03,21,08,49,186.00
2014,03,21,08,50,190.90
2014,03,21,08,51,197.60
2014,03,21,08,52,206.50
2014,03,21,08,53,211.40
2014,03,21,08,54,216.50
2014,03,21,08,55,220.50
2014,03,21,08,56,187.40
2014,03,21,08,57,142.50
2014,03,21,08,58,133.00
2014,03,21,08,59,126.80
2014,03,21,09,00,119.70
2014,03,21,09,01,120.80
2014,03,21,09,02,118.40
2014,03,21,09,03,104.80
2014,03,21,09,04,106.50
2014,03,21,09,05,95.00
2014,03,21,09,06,95.50
2014,03,21,09,07,98.60
2014,03,21,09,08,97.60
2014,03,21,09,09,94.00
2014,03,21,09,10,99.20
2014,03,21,09,11,125.90
2014,03,21,09,12,175.90
2014,03,21,09,13,230.60
2014,03,21,09,14,216.00
2014,03,21,09,15,213.00
2014,03,21,09,16,232.40
2014,03,21,09,17,308.00
2014,03,21,09,18,331.80
2014,03,21,09,19,329.50
2014,03,21,09,20,333.60
2014,03,21,09,21,336.00
2014,03,21,09,22,344.60
2014,03,21,09,23,352.70
2014,03,21,09,24,346.20
2014,03,21,09,25,360.60
2014,03,21,09,26,372.00
2014,03,21,09,27,374.80
2014,03,21,09,28,348.00
2014,03,21,09,29,371.20
2014,03,21,09,30,353.00
2014,03,21,09,31,337.90
2014,03,21,09,32,222.20
2014,03,21,09,33,181.70
2014,03,21,09,34,150.20
2014,03,21,09,35,144.90
2014,03,21,09,36,144.00
2014,03,21,09,37,145.40
2014,03,21,09,38,147.70
2014,03,21,09,39,153.10
2014,03,21,09,40,165.90
2014,03,21,09,41,169.50
2014,03,21,09,42,166.40
2014,03,21,09,43,170.50
2014,03,21,09,44,174.20
2014,03,21,09,45,180.80
2014,03,21,09,46,202.50
2014,03,21,09,47,250.60
2014,03,21,09,48,269.60
2014,03,21,09,49,388.20
2014,03,21,09,50,438.10
2014,03,21,09,51,447.20
2014,03,21,09,52,485.00
2014,03,21,09,53,477.80
2014,03,21,09,54,479.20
2014,03,21,09,55,482.00
2014,03,21,09,56,480.20
2014,03,21,09,57,463.60
2014,03,21,09,58,475.00
2014,03,21,09,59,466.00
2014,03,21,10,00,378.00
2014,03,21,10,01,246.00
2014,03,21,10,02,357.10
2014,03,21,10,03,412.50
2014,03,21,10,04,457.80
2014,03,21,10,05,474.60
2014,03,21,10,06,477.40
2014,03,21,10,07,486.20
2014,03,21,10,08,492.10
2014,03,21,10,09,497.40
2014,03,21,10,10,500.10
2014,03,21,10,11,499.60
2014,03,21,10,12,493.40
2014,03,21,10,13,486.00
2014,03,21,10,14,487.00
2014,03,21,10,15,487.60
2014,03,21,10,16,491.20
2014,03,21,10,17,496.10
2014,03,21,10,18,501.50
2014,03,21,10,19,510.60
2014,03,21,10,20,501.70
2014,03,21,10,21,438.40
2014,03,21,10,22,417.40
2014,03,21,10,23,270.50
2014,03,21,10,24,189.00
2014,03,21,10,25,196.20
2014,03,21,10,26,208.50
2014,03,21,10,27,211.20
2014,03,21,10,28,209.00
2014,03,21,10,29,430.80
2014,03,21,10,30,581.40
2014,03,21,10,31,574.00
2014,03,21,10,32,546.60
2014,03,21,10,33,377.80
2014,03,21,10,34,298.00
2014,03,21,10,35,265.00
2014,03,21,10,36,288.70
2014,03,21,10,37,313.00
2014,03,21,10,38,316.00
2014,03,21,10,39,332.20
2014,03,21,10,40,334.00
2014,03,21,10,41,334.00
2014,03,21,10,42,445.50
2014,03,21,10,43,690.20
2014,03,21,10,44,694.00
2014,03,21,10,45,690.80
2014,03,21,10,46,685.20
2014,03,21,10,47,685.60
2014,03,21,10,48,677.80
2014,03,21,10,49,662.00
2014,03,21,10,50,655.50
2014,03,21,10,51,656.50
2014,03,21,10,52,663.50
2014,03,21,10,53,653.80
2014,03,21,10,54,674.90
2014,03,21,10,55,691.00
2014,03,21,10,56,691.00
2014,03,21,10,57,690.80
2014,03,21,10,58,685.20
2014,03,21,10,59,670.00
2014,03,21,11,00,669.20
2014,03,21,11,01,668.00
2014,03,21,11,02,668.00
2014,03,21,11,03,661.20
2014,03,21,11,04,691.80
2014,03,21,11,05,672.80
2014,03,21,11,06,608.20
2014,03,21,11,07,258.00
2014,03,21,11,08,258.00
2014,03,21,11,09,254.40
2014,03,21,11,10,250.00
2014,03,21,11,11,250.00
2014,03,21,11,12,577.00
2014,03,21,11,13,709.80
2014,03,21,11,14,718.70
2014,03,21,11,15,671.00
2014,03,21,11,16,671.00
2014,03,21,11,17,671.00
2014,03,21,11,18,671.00
2014,03,21,11,19,437.20
2014,03,21,11,20,246.00
2014,03,21,11,21,246.00
2014,03,21,11,22,246.00
2014,03,21,11,23,246.00
2014,03,21,11,24,246.00
2014,03,21,11,25,369.20
2014,03,21,11,26,598.00
2014,03,21,11,27,688.50
2014,03,21,11,28,784.80
2014,03,21,11,29,795.50
2014,03,21,11,30,807.30
2014,03,21,11,31,776.80
2014,03,21,11,32,799.80
2014,03,21,11,33,728.50
2014,03,21,11,34,741.30
2014,03,21,11,35,748.60
2014,03,21,11,36,766.40
2014,03,21,11,37,776.90
2014,03,21,11,38,794.20
2014,03,21,11,39,781.90
2014,03,21,11,40,755.80
2014,03,21,11,41,756.30
2014,03,21,11,42,773.90
2014,03,21,11,43,796.00
2014,03,21,11,44,796.00
2014,03,21,11,45,796.00
2014,03,21,11,46,727.40
2014,03,21,11,47,704.20
2014,03,21,11,48,708.00
2014,03,21,11,49,715.60
2014,03,21,11,50,716.20
2014,03,21,11,51,702.80
2014,03,21,11,52,697.50
2014,03,21,11,53,708.00
2014,03,21,11,54,713.90
2014,03,21,11,55,715.00
2014,03,21,11,56,714.10
2014,03,21,11,57,726.40
2014,03,21,11,58,713.80
2014,03,21,11,59,740.40
2014,03,21,12,00,752.00
2014,03,21,12,01,726.00
2014,03,21,12,02,693.70
2014,03,21,12,03,686.30
2014,03,21,12,04,686.00
2014,03,21,12,05,684.20
2014,03,21,12,06,684.30
2014,03,21,12,07,686.80
2014,03,21,12,08,686.00
2014,03,21,12,09,686.40
2014,03,21,12,10,687.00
2014,03,21,12,11,688.30
2014,03,21,12,12,690.50
2014,03,21,12,13,692.70
2014,03,21,12,14,694.10
2014,03,21,12,15,699.30
2014,03,21,12,16,709.50
2014,03,21,12,17,721.20
2014,03,21,12,18,730.80
2014,03,21,12,19,730.70
2014,03,21,12,20,729.00
2014,03,21,12,21,737.80
2014,03,21,12,22,748.10
2014,03,21,12,23,745.50
2014,03,21,12,24,727.60
2014,03,21,12,25,714.30
2014,03,21,12,26,714.60
2014,03,21,12,27,712.00
2014,03,21,12,28,708.70
2014,03,21,12,29,709.50
2014,03,21,12,30,713.40
2014,03,21,12,31,716.90
2014,03,21,12,32,719.00
2014,03,21,12,33,720.20
2014,03,21,12,34,725.40
2014,03,21,12,35,727.10
2014,03,21,12,36,723.80
2014,03,21,12,37,721.30
2014,03,21,12,38,721.80
2014,03,21,12,39,723.80
2014,03,21,12,40,731.00
2014,03,21,12,41,736.00
2014,03,21,12,42,743.60
2014,03,21,12,43,748.80
2014,03,21,12,44,740.50
2014,03,21,12,45,731.60
2014,03,21,12,46,723.80
2014,03,21,12,47,722.00
2014,03,21,12,48,730.10
2014,03,21,12,49,730.00
2014,03,21,12,50,724.80
2014,03,21,12,51,728.00
2014,03,21,12,52,728.00
2014,03,21,12,53,728.50
2014,03,21,12,54,727.10
2014,03,21,12,55,727.50
2014,03,21,12,56,724.80
2014,03,21,12,57,727.70
2014,03,21,12,58,726.30
2014,03,21,12,59,728.00
2014,03,21,13,00,728.00
2014,03,21,13,01,729.30
2014,03,21,13,02,729.80
2014,03,21,13,03,729.00
2014,03,21,13,04,729.00
2014,03,21,13,05,732.40
2014,03,21,13,06,738.50
2014,03,21,13,07,733.40
2014,03,21,13,08,682.40
2014,03,21,13,09,732.60
2014,03,21,13,10,735.00
2014,03,21,13,11,735.00
2014,03,21,13,12,733.50
2014,03,21,13,13,733.00
2014,03,21,13,14,731.00
2014,03,21,13,15,729.30
2014,03,21,13,16,732.00
2014,03,21,13,17,735.00
2014,03,21,13,18,735.90
2014,03,21,13,19,737.00
2014,03,21,13,20,737.00
2014,03,21,13,21,732.40
2014,03,21,13,22,734.60
2014,03,21,13,23,734.80
2014,03,21,13,24,733.40
2014,03,21,13,25,735.50
2014,03,21,13,26,737.30
2014,03,21,13,27,737.50
2014,03,21,13,28,737.60
2014,03,21,13,29,737.30
2014,03,21,13,30,735.40
2014,03,21,13,31,736.80
2014,03,21,13,32,735.30
2014,03,21,13,33,737.80
2014,03,21,13,34,737.00
2014,03,21,13,35,736.10
2014,03,21,13,36,735.00
2014,03,21,13,37,736.20
2014,03,21,13,38,737.00
2014,03,21,13,39,735.30
2014,03,21,13,40,735.10
2014,03,21,13,41,736.40
2014,03,21,13,42,734.00
2014,03,21,13,43,738.00
2014,03,21,13,44,737.80
2014,03,21,13,45,735.00
2014,03,21,13,46,736.30
2014,03,21,13,47,735.50
2014,03,21,13,48,735.00
2014,03,21,13,49,733.30
2014,03,21,13,50,735.00
2014,03,21,13,51,735.00
2014,03,21,13,52,734.20
2014,03,21,13,53,733.00
2014,03,21,13,54,734.20
2014,03,21,13,55,741.40
2014,03,21,13,56,758.50
2014,03,21,13,57,773.60
2014,03,21,13,58,757.00
2014,03,21,13,59,732.50
2014,03,21,14,00,731.00
2014,03,21,14,01,731.00
2014,03,21,14,02,732.10
2014,03,21,14,03,728.60
2014,03,21,14,04,724.50
2014,03,21,14,05,722.30
2014,03,21,14,06,722.00
2014,03,21,14,07,722.40
2014,03,21,14,08,724.00
2014,03,21,14,09,723.20
2014,03,21,14,10,721.50
2014,03,21,14,11,721.60
2014,03,21,14,12,722.00
2014,03,21,14,13,722.00
2014,03,21,14,14,721.10
2014,03,21,14,15,718.60
2014,03,21,14,16,715.40
2014,03,21,14,17,717.00
2014,03,21,14,18,716.20
2014,03,21,14,19,714.50
2014,03,21,14,20,712.70
2014,03,21,14,21,712.00
2014,03,21,14,22,713.60
2014,03,21,14,23,711.90
2014,03,21,14,24,710.60
2014,03,21,14,25,713.50
2014,03,21,14,26,711.30
2014,03,21,14,27,710.00
2014,03,21,14,28,708.90
2014,03,21,14,29,709.30
2014,03,21,14,30,707.80
2014,03,21,14,31,707.00
2014,03,21,14,32,704.60
2014,03,21,14,33,701.40
2014,03,21,14,34,702.50
2014,03,21,14,35,700.60
2014,03,21,14,36,698.00
2014,03,21,14,37,697.30
2014,03,21,14,38,696.50
2014,03,21,14,39,693.50
2014,03,21,14,40,693.80
2014,03,21,14,41,690.70
2014,03,21,14,42,688.50
2014,03,21,14,43,686.00
2014,03,21,14,44,683.10
2014,03,21,14,45,683.10
2014,03,21,14,46,680.80
2014,03,21,14,47,679.70
2014,03,21,14,48,679.10
2014,03,21,14,49,676.90
2014,03,21,14,50,675.00
2014,03,21,14,51,675.00
2014,03,21,14,52,674.20
2014,03,21,14,53,672.00
2014,03,21,14,54,670.40
2014,03,21,14,55,670.00
2014,03,21,14,56,670.00
2014,03,21,14,57,668.20
2014,03,21,14,58,667.70
2014,03,21,14,59,666.00
2014,03,21,15,00,665.30
2014,03,21,15,01,662.70
2014,03,21,15,02,660.00
2014,03,21,15,03,657.70
2014,03,21,15,04,660.00
2014,03,21,15,05,661.00
2014,03,21,15,06,661.20
2014,03,21,15,07,663.80
2014,03,21,15,08,661.90
2014,03,21,15,09,657.10
2014,03,21,15,10,653.00
2014,03,21,15,11,650.20
2014,03,21,15,12,649.70
2014,03,21,15,13,647.60
2014,03,21,15,14,645.30
2014,03,21,15,15,642.90
2014,03,21,15,16,642.00
2014,03,21,15,17,641.30
2014,03,21,15,18,638.20
2014,03,21,15,19,635.50
2014,03,21,15,20,633.70
2014,03,21,15,21,633.00
2014,03,21,15,22,633.00
2014,03,21,15,23,631.10
2014,03,21,15,24,628.50
2014,03,21,15,25,625.50
2014,03,21,15,26,623.10
2014,03,21,15,27,621.50
2014,03,21,15,28,622.00
2014,03,21,15,29,620.00
2014,03,21,15,30,617.50
2014,03,21,15,31,613.60
2014,03,21,15,32,613.00
2014,03,21,15,33,612.80
2014,03,21,15,34,610.90
2014,03,21,15,35,607.20
2014,03,21,15,36,604.50
2014,03,21,15,37,603.00
2014,03,21,15,38,601.70
2014,03,21,15,39,598.60
2014,03,21,15,40,605.20
2014,03,21,15,41,593.80
2014,03,21,15,42,591.80
2014,03,21,15,43,589.80
2014,03,21,15,44,587.00
2014,03,21,15,45,585.90
2014,03,21,15,46,584.40
2014,03,21,15,47,582.60
2014,03,21,15,48,580.30
2014,03,21,15,49,577.20
2014,03,21,15,50,576.40
2014,03,21,15,51,572.40
2014,03,21,15,52,570.60
2014,03,21,15,53,569.10
2014,03,21,15,54,566.90
2014,03,21,15,55,564.70
2014,03,21,15,56,561.60
2014,03,21,15,57,559.20
2014,03,21,15,58,558.80
2014,03,21,15,59,556.60
2014,03,21,16,00,554.10
2014,03,21,16,01,552.00
2014,03,21,16,02,550.90
2014,03,21,16,03,548.20
2014,03,21,16,04,545.50
2014,03,21,16,05,546.70
2014,03,21,16,06,541.20
2014,03,21,16,07,537.40
2014,03,21,16,08,533.80
2014,03,21,16,09,531.60
2014,03,21,16,10,529.00
2014,03,21,16,11,527.90
2014,03,21,16,12,526.30
2014,03,21,16,13,522.80
2014,03,21,16,14,519.50
2014,03,21,16,15,518.80
2014,03,21,16,16,515.00
2014,03,21,16,17,513.70
2014,03,21,16,18,509.10
2014,03,21,16,19,507.10
2014,03,21,16,20,504.40
2014,03,21,16,21,503.00
2014,03,21,16,22,498.20
2014,03,21,16,23,496.10
2014,03,21,16,24,493.70
2014,03,21,16,25,491.20
2014,03,21,16,26,488.30
2014,03,21,16,27,486.10
2014,03,21,16,28,484.00
2014,03,21,16,29,481.10
2014,03,21,16,30,478.50
2014,03,21,16,31,476.30
2014,03,21,16,32,473.00
2014,03,21,16,33,470.70
2014,03,21,16,34,468.20
2014,03,21,16,35,465.20
2014,03,21,16,36,463.10
2014,03,21,16,37,462.00
2014,03,21,16,38,458.80
2014,03,21,16,39,455.40
2014,03,21,16,40,454.10
2014,03,21,16,41,451.60
2014,03,21,16,42,447.60
2014,03,21,16,43,445.10
2014,03,21,16,44,442.20
2014,03,21,16,45,438.50
2014,03,21,16,46,433.60
2014,03,21,16,47,431.30
2014,03,21,16,48,427.60
2014,03,21,16,49,424.20
2014,03,21,16,50,419.80
2014,03,21,16,51,417.80
2014,03,21,16,52,415.60
2014,03,21,16,53,412.20
2014,03,21,16,54,410.50
2014,03,21,16,55,408.60
2014,03,21,16,56,406.40
2014,03,21,16,57,403.50
2014,03,21,16,58,400.90
2014,03,21,16,59,396.90
2014,03,21,17,00,395.00
2014,03,21,17,01,391.30
2014,03,21,17,02,389.00
2014,03,21,17,03,386.30
2014,03,21,17,04,382.30
2014,03,21,17,05,381.00
2014,03,21,17,06,378.30
2014,03,21,17,07,375.50
2014,03,21,17,08,370.60
2014,03,21,17,09,368.10
2014,03,21,17,10,366.00
2014,03,21,17,11,362.70
2014,03,21,17,12,359.40
2014,03,21,17,13,356.20
2014,03,21,17,14,352.60
2014,03,21,17,15,348.10